User: anonymous   Login
Location: Unspecified
(0.0000°N, 0.0000°E)
Time: 20:39:30
(UTC+00:00)
Language:

TRACE - Orbit

View from above orbital plane
View from above orbital plane
View from above satellite
View from above satellite

Ground track
Ground track

The orbit data is extracted from the following two-line orbital elements,

1 25280U 98020A   19047.16463760  .00000447  00000-0  28855-4 0  9997
2 25280  97.4809 241.7441 0024926  90.3258 270.0829 15.12986612142432
Epoch (UTC): 16 February 2019 03:57:04
Eccentricity: 0.0024926
inclination: 97.4809°
perigee height: 510 km
apogee height: 544 km
right ascension of ascending node: 241.7441°
argument of perigee: 90.3258°
revolutions per day: 15.12986612
mean anomaly at epoch: 270.0829°
orbit number at epoch: 14243

The dashed part of the orbit path shows where the satellite is in the earth's shadow,  

DLR